Preview of NWS' New Version of Forecast
This preview is not operational and should not be used for support decisions.

Regional Weather Roundup (RWR)

Issued by National Weather Service (NWS)

                            
000
ASUS43 KLSX 192057
RWRMO 

WEATHER SUMMARY FOR MISSOURI
NATIONAL WEATHER SERVICE SPRINGFIELD MO
400 PM CDT WED JUN 19 2019

NOTE: "FAIR" INDICATES FEW OR NO CLOUDS BELOW 12,000 FEET WITH NO
       SIGNIFICANT WEATHER AND/OR OBSTRUCTIONS TO VISIBILITY.
       CURRENT SKY AND/OR WEATHER CONDITIONS ARE NOT AVAILABLE FOR
       CHILLICOTHE AND FARMINGTON.

MOZ001>031-035>038-043-044-053-054-192200-
...NORTHERN AND WESTERN MISSOURI...
  
CITY           SKY/WX    TMP DP  RH WIND       PRES   REMARKS
KANSAS CTY INT PTSUNNY   74  64  71 N10       29.71F                  
LEE'S SUMMIT   PTSUNNY   73  64  73 NW12      29.70F                  
ST JOSEPH      PTSUNNY   74  64  71 NE7       29.72F                  
CHILLICOTHE      N/A     71  66  84 N8        29.68F                  
     
$$
MOZ066>068-077>081-088>096-101>105-192200-
...SOUTHWEST MISSOURI...
  
CITY           SKY/WX    TMP DP  RH WIND       PRES   REMARKS
SPRINGFIELD    PTSUNNY   79  66  64 W14G22    29.72F                  
JOPLIN         CLOUDY    78  68  71 W13       29.74F                  
BRANSON        MOSUNNY   82  66  57 W14       29.74F                  
               
$$
MOZ032>034-039>042-045>050-055>058-069>072-192200-
...CENTRAL MISSOURI...  
  
CITY           SKY/WX    TMP DP  RH WIND       PRES   REMARKS
COLUMBIA       NOT AVBL                                               
ROLLA          CLOUDY    77  66  68 W9        29.70F                  
SEDALIA        PTSUNNY   77  65  66 W14       29.68F                  
WARRENSBURG    CLOUDY    77  64  65 W10       29.68F                  
               
$$
MOZ051-052-059>065-192200-
...EAST CENTRAL MISSOURI...
  
CITY           SKY/WX    TMP DP  RH WIND       PRES   REMARKS
ST LOUIS INTL  PTSUNNY   79  63  57 W10       29.65F                  
                   
$$
MOZ072>076-082>087-097>100-106>115-192200-
...SOUTH CENTRAL AND SOUTHEAST MISSOURI...
  
CITY           SKY/WX    TMP DP  RH WIND       PRES   REMARKS
CAPE GIRARDEAU TSTM      73  67  81 CALM      29.68F                  
POPLAR BLUFF   FAIR      82  75  79 W3        29.65F                  
WEST PLAINS    PTSUNNY   83  70  64 W5        29.72F                  
                                       
$$